sat.trackr.live / text

‹ back to catalog

KUIPER-00601

NORAD 69285 · 2026-118U

PAYLOAD ACTIVE UNKNOWN

§ Identity

Operator
Country
US
Launch date
2026-05-29
Launch site
AFETR
Launch vehicle
Mass (kg)
RCS (m²)

External: N2YO · Heavens-Above · Gunter

§ Orbital elements

Epoch: 2026-09-19T16:44:09.195360Z

Period
97.30 min
Inclination
51.9015°
Eccentricity
0.0000363
Mean motion
14.79926328 rev/d
Perigee alt
629.3 km
Apogee alt
629.8 km
Semi-major
7,007.7 km
B*
1.7206e-4
RAAN
342.7420°
Arg perigee
87.9951°
Mean anomaly
272.1053°
Rev number
1,815

§ Raw data

KUIPER-006011 69285U 26118U   26262.69732865  .00001091  00000+0  17206-3 0  99912 69285  51.9015 342.7420 0000363  87.9951 272.1053 14.79926328 18152

JSON: /api/v1/satellites/69285 · /tle

For live sub-satellite position, see the globe view (requires WebGL).

§ Visibility from observer

Set your observer location to see the next 7 days of passes ≥ 10°. The values pass through the URL so the page stays shareable.

No JS? Fill the form by hand. The geolocation button needs JavaScript.